When you browse on this site, cookies collect data to enhance your experience and personalize the content and advertising you see.
Visit our Privacy Policy to learn more. By continuing to use the site, you agree to this use of cookies and data.
  • en France
  • Liste des pays
  • À 7 jours
  • Température de l'eau
  • Carte satellitaire
  • Carte météo
  • Widgets météo
  • user-avatar
    Se connecter

    Météo par heure à Klagenfurt

    Ce jour, 18 Juin, Mardi

    Heure Température Précipitation Vent Pression Humidité
    00:00 +15°C° 0 mm 1 m/s 691 mmHg 93%
    01:00 +15°C° 0 mm 1 m/s 691 mmHg 93%
    02:00 +14°C° 0 mm 1 m/s 691 mmHg 94%
    03:00 +14°C° 0 mm 1 m/s 691 mmHg 94%
    04:00 +14°C° 0 mm 1 m/s 690 mmHg 95%
    05:00 +15°C° 0 mm 1 m/s 691 mmHg 92%
    06:00 +16°C° 0 mm 1 m/s 691 mmHg 90%
    07:00 +16°C° 0 mm 0 m/s 692 mmHg 87%
    08:00 +20°C° 0.1 mm 1 m/s 692 mmHg 80%
    09:00 +21°C° 0.1 mm 1 m/s 692 mmHg 72%
    10:00 +23°C° 0.1 mm 1 m/s 692 mmHg 65%
    11:00 +24°C° 0.4 mm 1 m/s 692 mmHg 63%
    12:00 +24°C° 0.4 mm 1 m/s 692 mmHg 60%
    13:00 +25°C° 0.4 mm 1 m/s 692 mmHg 58%
    14:00 +25°C° 0.4 mm 1 m/s 692 mmHg 60%
    15:00 +25°C° 0.4 mm 1 m/s 691 mmHg 62%
    16:00 +24°C° 0.4 mm 1 m/s 691 mmHg 64%
    17:00 +23°C° 0.3 mm 1 m/s 691 mmHg 72%
    18:00 +22°C° 0.3 mm 1 m/s 690 mmHg 80%
    19:00 +20°C° 0.3 mm 1 m/s 690 mmHg 89%
    20:00 +19°C° 0.1 mm 1 m/s 690 mmHg 90%
    21:00 +18°C° 0.1 mm 1 m/s 690 mmHg 92%
    22:00 +15°C° 0.1 mm 1 m/s 690 mmHg 94%
    23:00 +14°C° 0 mm 0 m/s 690 mmHg 94%

    Demain, 19 Juin, Mercredi

    Heure Température Précipitation Vent Pression Humidité
    00:00 +14°C° 0 mm 0 m/s 689 mmHg 94%
    01:00 +13°C° 0 mm 0 m/s 689 mmHg 94%
    02:00 +13°C° 0 mm 0 m/s 689 mmHg 94%
    03:00 +13°C° 0 mm 0 m/s 689 mmHg 94%
    04:00 +13°C° 0 mm 0 m/s 689 mmHg 94%
    05:00 +14°C° 0 mm 0 m/s 689 mmHg 92%
    06:00 +16°C° 0 mm 0 m/s 689 mmHg 89%
    07:00 +17°C° 0 mm 0 m/s 690 mmHg 87%
    08:00 +19°C° 0.4 mm 0 m/s 690 mmHg 80%
    09:00 +21°C° 0.4 mm 0 m/s 690 mmHg 72%
    10:00 +25°C° 0.4 mm 1 m/s 690 mmHg 65%
    11:00 +26°C° 0.6 mm 1 m/s 690 mmHg 61%
    12:00 +27°C° 0.6 mm 1 m/s 690 mmHg 57%
    13:00 +27°C° 0.6 mm 1 m/s 690 mmHg 53%
    14:00 +27°C° 0.1 mm 1 m/s 690 mmHg 52%
    15:00 +27°C° 0.1 mm 2 m/s 690 mmHg 50%
    16:00 +27°C° 0.1 mm 2 m/s 689 mmHg 49%
    17:00 +25°C° 0.4 mm 2 m/s 689 mmHg 61%
    18:00 +23°C° 0.4 mm 1 m/s 689 mmHg 73%
    19:00 +21°C° 0.4 mm 1 m/s 688 mmHg 85%
    20:00 +20°C° 0.6 mm 1 m/s 688 mmHg 87%
    21:00 +18°C° 0.6 mm 1 m/s 688 mmHg 89%
    22:00 +16°C° 0.6 mm 1 m/s 688 mmHg 91%
    23:00 +16°C° 0.1 mm 1 m/s 688 mmHg 90%

    Après-demain, 20 Juin, Jeudi

    Heure Température Précipitation Vent Pression Humidité
    00:00 +15°C° 0.1 mm 1 m/s 688 mmHg 90%
    01:00 +15°C° 0.1 mm 1 m/s 688 mmHg 90%
    02:00 +15°C° 0 mm 1 m/s 688 mmHg 89%
    03:00 +14°C° 0 mm 1 m/s 688 mmHg 89%
    04:00 +14°C° 0 mm 1 m/s 688 mmHg 89%
    05:00 +15°C° 0 mm 1 m/s 688 mmHg 85%
    06:00 +16°C° 0 mm 0 m/s 689 mmHg 82%
    07:00 +18°C° 0 mm 0 m/s 689 mmHg 78%
    08:00 +20°C° 0 mm 0 m/s 689 mmHg 68%
    09:00 +22°C° 0 mm 0 m/s 690 mmHg 59%
    10:00 +27°C° 0 mm 1 m/s 690 mmHg 50%
    11:00 +27°C° 0.1 mm 1 m/s 690 mmHg 47%
    12:00 +28°C° 0.1 mm 1 m/s 690 mmHg 45%
    13:00 +29°C° 0.1 mm 1 m/s 690 mmHg 43%
    14:00 +28°C° 0.1 mm 2 m/s 689 mmHg 45%
    15:00 +28°C° 0.1 mm 2 m/s 689 mmHg 48%
    16:00 +27°C° 0.1 mm 2 m/s 688 mmHg 50%
    17:00 +25°C° 0 mm 2 m/s 688 mmHg 60%
    18:00 +23°C° 0 mm 2 m/s 688 mmHg 70%
    19:00 +21°C° 0 mm 2 m/s 688 mmHg 80%
    20:00 +19°C° 0 mm 2 m/s 688 mmHg 84%
    21:00 +19°C° 0 mm 1 m/s 688 mmHg 89%
    22:00 +16°C° 0 mm 1 m/s 688 mmHg 94%
    23:00 +15°C° 0 mm 1 m/s 688 mmHg 92%

    21 Juin, Vendredi

    Heure Température Précipitation Vent Pression Humidité
    00:00 +15°C° 0 mm 1 m/s 688 mmHg 91%
    01:00 +15°C° 0 mm 1 m/s 688 mmHg 90%
    02:00 +14°C° 0 mm 1 m/s 688 mmHg 89%
    03:00 +14°C° 0 mm 1 m/s 688 mmHg 89%
    04:00 +14°C° 0 mm 1 m/s 688 mmHg 88%
    05:00 +15°C° 0 mm 1 m/s 689 mmHg 83%
    06:00 +16°C° 0 mm 0 m/s 689 mmHg 78%
    07:00 +18°C° 0 mm 0 m/s 690 mmHg 73%
    08:00 +20°C° 0.2 mm 0 m/s 690 mmHg 70%
    09:00 +23°C° 0.2 mm 1 m/s 691 mmHg 66%
    10:00 +25°C° 0.2 mm 1 m/s 691 mmHg 62%
    11:00 +25°C° 0.9 mm 1 m/s 691 mmHg 66%
    12:00 +25°C° 0.9 mm 1 m/s 690 mmHg 69%
    13:00 +24°C° 0.9 mm 1 m/s 690 mmHg 73%
    14:00 +25°C° 0.5 mm 1 m/s 690 mmHg 67%
    15:00 +25°C° 0.5 mm 1 m/s 690 mmHg 62%
    16:00 +26°C° 0.5 mm 1 m/s 690 mmHg 56%
    17:00 +24°C° 0.3 mm 1 m/s 690 mmHg 64%
    18:00 +22°C° 0.3 mm 1 m/s 690 mmHg 73%
    19:00 +21°C° 0.3 mm 1 m/s 689 mmHg 81%
    20:00 +19°C° 0.2 mm 1 m/s 689 mmHg 83%
    21:00 +18°C° 0.2 mm 1 m/s 690 mmHg 85%
    22:00 +16°C° 0.2 mm 1 m/s 690 mmHg 86%
    23:00 +14°C° 0.2 mm 0 m/s 690 mmHg 87%

    22 Juin, Samedi

    Heure Température Précipitation Vent Pression Humidité
    00:00 +14°C° 0.2 mm 0 m/s 690 mmHg 88%
    01:00 +13°C° 0.2 mm 0 m/s 690 mmHg 89%
    02:00 +13°C° 0.1 mm 0 m/s 690 mmHg 90%
    03:00 +13°C° 0.1 mm 0 m/s 690 mmHg 91%
    04:00 +13°C° 0.1 mm 0 m/s 689 mmHg 92%
    05:00 +14°C° 0 mm 0 m/s 690 mmHg 89%
    06:00 +16°C° 0 mm 0 m/s 691 mmHg 86%
    07:00 +17°C° 0 mm 0 m/s 691 mmHg 83%
    08:00 +21°C° 0.3 mm 1 m/s 691 mmHg 79%
    09:00 +22°C° 0.3 mm 1 m/s 691 mmHg 75%
    10:00 +23°C° 0.3 mm 1 m/s 691 mmHg 70%
    11:00 +24°C° 0.9 mm 1 m/s 691 mmHg 72%
    12:00 +24°C° 0.9 mm 1 m/s 691 mmHg 73%
    13:00 +24°C° 0.9 mm 1 m/s 691 mmHg 74%
    14:00 +24°C° 1 mm 1 m/s 691 mmHg 76%
    15:00 +24°C° 1 mm 1 m/s 690 mmHg 77%
    16:00 +23°C° 1 mm 1 m/s 690 mmHg 79%
    17:00 +22°C° 0.4 mm 1 m/s 690 mmHg 82%
    18:00 +21°C° 0.4 mm 1 m/s 690 mmHg 86%
    19:00 +18°C° 0.4 mm 0 m/s 690 mmHg 89%
    20:00 +19°C° 0.1 mm 1 m/s 690 mmHg 90%
    21:00 +18°C° 0.1 mm 1 m/s 690 mmHg 90%
    22:00 +15°C° 0.1 mm 1 m/s 690 mmHg 90%
    23:00 +15°C° 0 mm 1 m/s 690 mmHg 91%

    23 Juin, Dimanche

    Heure Température Précipitation Vent Pression Humidité
    00:00 +15°C° 0 mm 1 m/s 690 mmHg 92%
    01:00 +13°C° 0 mm 0 m/s 690 mmHg 93%
    02:00 +13°C° 0 mm 0 m/s 690 mmHg 93%
    03:00 +13°C° 0 mm 0 m/s 690 mmHg 93%
    04:00 +13°C° 0 mm 0 m/s 690 mmHg 93%
    05:00 +14°C° 0 mm 0 m/s 691 mmHg 90%
    06:00 +16°C° 0 mm 0 m/s 691 mmHg 87%
    07:00 +17°C° 0 mm 0 m/s 692 mmHg 84%
    08:00 +19°C° 0 mm 0 m/s 692 mmHg 75%
    09:00 +24°C° 0 mm 1 m/s 693 mmHg 67%
    10:00 +26°C° 0 mm 1 m/s 693 mmHg 58%
    11:00 +26°C° 0.2 mm 1 m/s 693 mmHg 57%
    12:00 +27°C° 0.2 mm 1 m/s 693 mmHg 56%
    13:00 +27°C° 0.2 mm 1 m/s 693 mmHg 55%
    14:00 +27°C° 0.1 mm 1 m/s 693 mmHg 55%
    15:00 +27°C° 0.1 mm 1 m/s 693 mmHg 54%
    16:00 +27°C° 0.1 mm 1 m/s 693 mmHg 53%
    17:00 +25°C° 0.1 mm 1 m/s 693 mmHg 63%
    18:00 +24°C° 0.1 mm 1 m/s 693 mmHg 72%
    19:00 +22°C° 0.1 mm 1 m/s 693 mmHg 81%
    20:00 +21°C° 0.1 mm 1 m/s 693 mmHg 85%
    21:00 +20°C° 0.1 mm 1 m/s 693 mmHg 88%
    22:00 +18°C° 0.1 mm 1 m/s 694 mmHg 92%
    23:00 +16°C° 0 mm 0 m/s 694 mmHg 93%
    Voir plus